Notices

What's New in latest Release from April 7th, 2021:

- Updated Glossary, including Speed of Maximum Gust, and Total Hourly Precipitation

- Updated national and regional climate services offices contacts and prices information

- Addition of station inventory lists for 1981-2010, 1971-2000, and 1961-1990 Normals.

If you haven't already, please take our survey and provide feedback about our website: https://eccc.sondage-survey.ca/f/LanguageSelection.aspx?s=442ca660-fcf1-47c0-95a9-59707d6fd709

Hourly Data Report for July 25, 2018

TORONTO CITY
ONTARIO
Current Station Operator: ECCC - MSC

43°40'00.000" N
79°24'00.000" W
112.50 m
6158355
71508
XTO

Download Data

Hourly Data (July 2018)
Hourly Data Report for July 25, 2018
TIME
LST
Temp Definition
°C
Dew Point Definition
°C
Rel Hum Definition
%
Precip. Amount Definition
mm

Wind Dir Definition
10's deg

Wind Spd Definition
km/h
Visibility Definition
km
Stn Press Definition
kPa
Hmdx Definition


Wind Chill Definition


Weather Definition


00:00 22.8 21.0 89 0.6 LegendMM LegendMM   99.89 31   LegendNANA
01:00 22.9 20.7 88 0.0 LegendMM LegendMM   99.85 31   LegendNANA
02:00 22.6 20.5 88 0.0 LegendMM LegendMM   99.81 31   LegendNANA
03:00 22.7 20.5 88 0.0 LegendMM LegendMM   99.80 31   LegendNANA
04:00 22.4 20.4 89 0.0 LegendMM LegendMM   99.79 30   LegendNANA
05:00 22.1 20.0 88 0.0 LegendMM LegendMM   99.80 30   LegendNANA
06:00 22.2 19.9 87 0.0 LegendMM LegendMM   99.78 30   LegendNANA
07:00 22.0 19.0 83 0.0 LegendMM LegendMM   99.81 29   LegendNANA
08:00 22.6 19.0 80 0.0 LegendMM LegendMM   99.82 29   LegendNANA
09:00 24.2 19.1 73 0.0 LegendMM LegendMM   99.84 31   LegendNANA
10:00 25.4 18.8 67 0.0 LegendMM LegendMM   99.84 32   LegendNANA
11:00 26.4 19.2 64 0.0 LegendMM LegendMM   99.85 33   LegendNANA
12:00 25.7 17.6 61 0.0 LegendMM LegendMM   99.85 31   LegendNANA
13:00 26.9 17.5 56 0.0 LegendMM LegendMM   99.83 33   LegendNANA
14:00 27.6 19.5 62 0.0 LegendMM LegendMM   99.77 35   LegendNANA
15:00 27.8 18.4 57 0.0 LegendMM LegendMM   99.71 34   LegendNANA
16:00 28.6 15.0 44 0.0 LegendMM LegendMM   99.69 33   LegendNANA
17:00 28.5 15.5 45 0.0 LegendMM LegendMM   99.71 33   LegendNANA
18:00 27.9 14.7 44 0.0 LegendMM LegendMM   99.69 32   LegendNANA
19:00 26.9 15.8 51 0.0 LegendMM LegendMM   99.73 31   LegendNANA
20:00 25.6 13.9 48 0.0 LegendMM LegendMM   99.79 29   LegendNANA
21:00 24.1 12.1 47 0.0 LegendMM LegendMM   99.80 26   LegendNANA
22:00 23.1 12.0 50 0.0 LegendMM LegendMM   99.81 25   LegendNANA
23:00 21.0 13.3 61 0.0 LegendMM LegendMM   99.80     LegendNANA

Notes on Data Quality.

Legend

  • E = Estimated
  • M = Missing
  • NA = Not Available*
  • [empty] = Indicates an unobserved value
Date modified: